Weather History for Gallup, NM

Change the Weather History Date:

Tuesday, April 1, 2014

  Actual Average Record
Temperature  
Mean Temperature 51 °F -  
Max Temperature 63 °F 56 °F 75 °F (2011)
Min Temperature 39 °F 24 °F 14 °F (1974)
Degree Days  
Heating Degree Days 14    
Growing Degree Days 1 (Base 50)    
Moisture  
Dew Point 10 °F    
Average Humidity 21    
Maximum Humidity 33    
Minimum Humidity 12    
Precipitation  
Precipitation 0.00 in - - ()
Sea Level Pressure  
Sea Level Pressure 29.66 in    
Wind  
Wind Speed 19 mph (SW)    
Max Wind Speed 43 mph    
Max Gust Speed 55 mph    
Visibility 10 miles    
Events      
Averages and records for this station are not official NWS values.
T = Trace of Precipitation, MM = Missing Value Source: NWS Daily Summary

Daily Weather History Graph

Daily Weather History Graph

Search for Another Location

Airport:

Trip Planner

Search our weather history database for the weather conditions in past years. The results will help you decide how hot, cold, wet, or windy it might be!

Date:

Astronomy

Apr. 01, 2014 Rise Set
Actual Time 7:01 AM MDT 7:36 PM MDT
Civil Twilight 6:35 AM MDT 8:02 PM MDT
Nautical Twilight 6:05 AM MDT 8:32 PM MDT
Astronomical Twilight 5:35 AM MDT 9:03 PM MDT
Moon 8:10 AM MDT (4/1) 9:57 PM MDT (4/1)
Length of Visible Light 13h 26m
Length of Day
12h 35m
Waxing Crescent, 5% of the Moon is Illuminated
Apr 1
Waxing Crescent
Apr 7
First Quarter
Apr 15
Full
Apr 22
Last Quarter
Apr 29
New

Hourly Weather History & Observations

Time (MDT) Temp. Windchill Dew Point Humidity Pressure Visibility Wind Dir Wind Speed Gust Speed Precip Events Conditions
12:53 AM 43.0 °F 37.7 °F 9.0 °F 25% 29.76 in 10.0 mi SSW 9.2 mph - N/A   Clear
1:53 AM 43.0 °F 37.2 °F 9.0 °F 25% 29.75 in 10.0 mi SSW 10.4 mph - N/A   Clear
2:53 AM 44.1 °F 37.4 °F 10.0 °F 25% 29.71 in 10.0 mi SSW 13.8 mph - N/A   Clear
3:53 AM 41.0 °F 34.7 °F 10.0 °F 28% 29.73 in 10.0 mi South 10.4 mph - N/A   Clear
4:53 AM 41.0 °F 33.5 °F 10.9 °F 29% 29.70 in 10.0 mi SSW 13.8 mph - N/A   Clear
5:53 AM 39.9 °F 33.4 °F 12.0 °F 32% 29.72 in 10.0 mi SSW 10.4 mph - N/A   Clear
6:53 AM 41.0 °F 33.5 °F 14.0 °F 33% 29.71 in 10.0 mi SSW 13.8 mph - N/A   Clear
7:53 AM 44.1 °F 37.1 °F 15.1 °F 31% 29.72 in 10.0 mi SSW 15.0 mph - N/A   Clear
8:53 AM 48.9 °F - 14.0 °F 25% 29.72 in 10.0 mi SW 21.9 mph 31.1 mph N/A   Clear
9:53 AM 52.0 °F - 10.9 °F 19% 29.69 in 10.0 mi SW 31.1 mph 40.3 mph N/A   Clear
10:53 AM 55.0 °F - 8.1 °F 15% 29.66 in 10.0 mi SW 31.1 mph 48.3 mph N/A   Clear
11:53 AM 57.9 °F - 7.0 °F 13% 29.66 in 10.0 mi SW 34.5 mph 51.8 mph N/A   Clear
12:53 PM 60.1 °F - 8.1 °F 13% 29.62 in 10.0 mi SW 41.4 mph 52.9 mph N/A   Clear
1:53 PM 62.1 °F - 10.0 °F 13% 29.57 in 10.0 mi SW 42.6 mph 54.1 mph N/A   Clear
2:53 PM 63.0 °F - 10.0 °F 13% 29.54 in 10.0 mi SW 34.5 mph 55.2 mph N/A   Clear
3:53 PM 62.1 °F - 9.0 °F 12% 29.55 in 10.0 mi WSW 35.7 mph 54.1 mph N/A   Clear
4:53 PM 62.1 °F - 9.0 °F 12% 29.55 in 10.0 mi SW 28.8 mph 51.8 mph N/A   Clear
5:53 PM 60.1 °F - 9.0 °F 13% 29.59 in 10.0 mi SW 35.7 mph 46.0 mph N/A   Clear
6:53 PM 57.0 °F - 9.0 °F 15% 29.62 in 10.0 mi SW 24.2 mph 43.7 mph N/A   Clear
7:53 PM 53.1 °F - 8.1 °F 16% 29.63 in 10.0 mi SW 25.3 mph 43.7 mph N/A   Clear
8:53 PM 50.0 °F - 8.1 °F 18% 29.64 in 10.0 mi SW 17.3 mph 29.9 mph N/A   Clear
9:53 PM 48.9 °F - 10.0 °F 21% 29.62 in 10.0 mi SW 20.7 mph 27.6 mph N/A   Clear
10:53 PM 45.0 °F 40.1 °F 10.9 °F 25% 29.64 in 10.0 mi SW 9.2 mph - N/A   Clear
11:53 PM 43.0 °F 37.2 °F 10.9 °F 27% 29.62 in 10.0 mi SSW 10.4 mph - N/A   Clear